Date String (YYYY-MM-DD hh:mm:ss) UTC,Instrument flags,absolute air pressure of the measurement (hPa),sample flow rate (lpm),inlet stack bypass flow (lpm),air temperature of the measurement (°C),ambient temperature measured by the external sensor (°C),aerosol sample conditioner tube jacket temperature (°C),OPC LED temperature (°C),internal box temperature (°C),relative humidity of the measurement (%),span deviation,mass concentration of particles derived from Lorenz-Mie calculation of OPC scattering (μg/m³),mass concentration of particles derived from Lorenz-Mie calculation of OPC scattering (μg/m³),mass concentration of particles derived from Lorenz-Mie calculation of OPC scattering (μg/m³)
DateTimeUTC,F1_M11,P_M11,Q1_M11,Q2_M11,T1_M11,T2_M11,T3_M11,T4_M11,T5_M11,U1_M11,ZSPAN_M11,X0_M11,X2_M11,X1_M11
2024-03-27 20:00:00,SystemResetWarning,0827.4,5.01,000.00,020.3,019.7,000.0,028.7,022.0,12.2,0000.0,0001.51,0000.89,0000.62
2024-03-27 20:01:00,SystemResetWarning,0827.5,5.01,000.00,020.3,019.7,000.0,028.7,022.0,11.6,0000.0,0001.52,0000.87,0000.62
2024-03-27 20:02:00,SystemResetWarning,0827.4,5.00,000.00,020.3,019.7,000.0,028.7,022.0,12.6,0000.0,0001.68,0000.89,0000.62
2024-03-27 20:03:00,SystemResetWarning,0827.4,4.99,000.00,020.3,019.7,000.0,028.7,022.0,11.2,0000.0,0001.92,0000.94,0000.62
2024-03-27 20:04:00,SystemResetWarning,0827.4,4.99,000.00,020.3,019.7,000.0,028.7,022.0,11.9,0000.0,0001.92,0000.94,0000.62
2024-03-27 20:05:00,SystemResetWarning,0827.4,4.99,000.00,020.3,019.7,000.0,028.7,022.0,11.6,0000.0,0002.00,0000.96,0000.61
2024-03-27 20:06:00,SystemResetWarning,0827.5,5.00,000.00,020.3,019.7,000.0,028.7,022.0,10.7,0000.0,0001.96,0000.94,0000.61
2024-03-27 20:07:00,SystemResetWarning,0827.7,5.00,000.00,020.3,019.7,000.0,028.7,022.0,11.1,0000.0,0001.99,0000.94,0000.62
2024-03-27 20:08:00,SystemResetWarning,0827.4,5.01,000.00,020.3,019.7,000.0,028.7,022.0,13.3,0000.0,0002.03,0000.97,0000.63
2024-03-27 20:09:00,SystemResetWarning,0827.4,5.01,000.00,020.3,019.7,000.0,028.7,022.0,11.2,0000.0,0002.02,0000.96,0000.62
2024-03-27 20:10:00,SystemResetWarning,0827.4,5.01,000.00,020.3,019.7,000.0,028.7,022.0,10.6,0000.0,0002.08,0000.98,0000.62
2024-03-27 20:11:00,SystemResetWarning,0827.4,5.01,000.00,020.3,019.7,000.0,028.7,022.0,10.5,0000.0,0002.28,0001.00,0000.62
2024-03-27 20:12:00,SystemResetWarning,0827.4,5.00,000.00,020.3,019.7,000.0,028.7,022.0,10.3,0000.0,0002.51,0001.02,0000.63
2024-03-27 20:13:00,SystemResetWarning,0827.5,5.00,000.00,020.3,019.7,000.0,028.7,022.0,10.4,0000.0,0002.41,0001.02,0000.63
2024-03-27 20:14:00,SystemResetWarning,0827.7,5.00,000.00,020.3,019.7,000.0,028.7,022.0,10.1,0000.0,0002.33,0001.01,0000.63
2024-03-27 20:15:00,SystemResetWarning,0827.6,4.99,000.00,020.3,019.7,000.0,028.7,022.0,10.3,0000.0,0002.41,0001.03,0000.62
2024-03-27 20:16:00,SystemResetWarning,0827.5,5.00,000.00,020.3,019.7,000.0,028.7,022.0,10.0,0000.0,0002.40,0001.02,0000.62
2024-03-27 20:17:00,SystemResetWarning,0827.4,5.00,000.00,020.3,019.7,000.0,028.7,022.0,09.8,0000.0,0002.43,0001.03,0000.63
2024-03-27 20:18:00,SystemResetWarning,0827.6,5.00,000.00,020.3,019.7,000.0,028.7,022.0,11.0,0000.0,0002.28,0001.00,0000.62
2024-03-27 20:19:00,SystemResetWarning,0827.4,5.00,000.00,020.3,019.7,000.0,028.7,022.0,10.2,0000.0,0002.26,0000.99,0000.61
2024-03-27 20:20:00,SystemResetWarning,0827.4,5.00,000.00,020.3,019.7,000.0,028.7,022.0,10.6,0000.0,0002.37,0001.02,0000.61
2024-03-27 20:21:00,SystemResetWarning,0827.5,5.00,000.00,020.3,019.7,000.0,028.7,022.0,12.0,0000.0,0002.37,0001.01,0000.61
2024-03-27 20:22:00,SystemResetWarning,0827.4,5.00,000.00,020.3,019.7,000.0,028.7,022.0,10.4,0000.0,0002.31,0001.02,0000.61
2024-03-27 20:23:00,SystemResetWarning,0827.5,5.00,000.00,020.3,019.7,000.0,028.7,022.0,10.3,0000.0,0001.89,0000.98,0000.59
2024-03-27 20:24:00,SystemResetWarning,0827.4,5.00,000.00,020.3,019.7,000.0,028.7,022.0,10.9,0000.0,0001.89,0000.97,0000.58
2024-03-27 20:25:00,SystemResetWarning,0827.4,5.00,000.00,020.3,019.7,000.0,028.7,022.0,10.9,0000.0,0001.92,0001.00,0000.59
2024-03-27 20:26:00,SystemResetWarning,0827.4,4.99,000.00,020.3,019.7,000.0,028.7,022.0,12.2,0000.0,0001.95,0001.00,0000.59
2024-03-27 20:27:00,SystemResetWarning,0827.4,4.99,000.00,020.3,019.7,000.0,028.7,022.0,10.3,0000.0,0001.87,0000.98,0000.60
2024-03-27 20:28:00,SystemResetWarning,0827.4,4.99,000.00,020.3,019.7,000.0,028.7,022.0,10.7,0000.0,0001.82,0000.97,0000.60
2024-03-27 20:29:00,SystemResetWarning,0827.4,5.00,000.00,020.3,019.7,000.0,028.7,022.0,11.8,0000.0,0001.84,0000.97,0000.60
2024-03-27 20:30:00,SystemResetWarning,0827.2,5.01,000.00,020.3,019.7,000.0,028.7,022.0,11.3,0000.0,0001.96,0001.02,0000.61
2024-03-27 20:31:00,SystemResetWarning,0827.2,5.00,000.00,020.3,019.7,000.0,028.7,022.1,11.1,0000.0,0001.94,0001.03,0000.62
2024-03-27 20:32:00,SystemResetWarning,0827.2,5.00,000.00,020.3,019.7,000.0,028.7,022.0,10.8,0000.0,0001.88,0001.02,0000.62
2024-03-27 20:33:00,SystemResetWarning,0827.2,5.00,000.00,020.3,019.7,000.0,028.7,022.0,10.6,0000.0,0001.77,0000.98,0000.62
2024-03-27 20:34:00,SystemResetWarning,0827.1,5.00,000.00,020.3,019.7,000.0,028.7,022.0,10.7,0000.0,0001.74,0000.96,0000.63
2024-03-27 20:35:00,SystemResetWarning,0827.0,5.00,000.00,020.3,019.7,000.0,028.7,022.0,10.5,0000.0,0001.95,0000.96,0000.64
2024-03-27 20:36:00,SystemResetWarning,0827.1,5.00,000.00,020.3,019.7,000.0,028.7,022.0,10.7,0000.0,0002.79,0000.92,0000.64
2024-03-27 20:37:00,SystemResetWarning,0827.1,5.01,000.00,020.3,019.6,000.0,028.7,022.0,11.4,0000.0,0003.26,0000.96,0000.64
2024-03-27 20:38:00,SystemResetWarning,0827.1,5.00,000.00,020.3,019.6,000.0,028.7,022.0,10.8,0000.0,0003.38,0000.98,0000.64
2024-03-27 20:39:00,SystemResetWarning,0827.2,5.00,000.00,020.3,019.6,000.0,028.7,022.0,11.2,0000.0,0003.55,0001.02,0000.64
2024-03-27 20:40:00,SystemResetWarning,0827.2,5.00,000.00,020.3,019.6,000.0,028.7,022.0,11.0,0000.0,0003.58,0001.03,0000.64
2024-03-27 20:41:00,SystemResetWarning,0827.1,5.00,000.00,020.3,019.6,000.0,028.7,022.0,11.2,0000.0,0003.49,0001.01,0000.64
2024-03-27 20:42:00,SystemResetWarning,0827.1,5.00,000.00,020.3,019.6,000.0,028.7,022.0,11.5,0000.0,0003.41,0000.96,0000.64
2024-03-27 20:43:00,SystemResetWarning,0827.1,5.00,000.00,020.3,019.6,000.0,028.7,022.0,11.1,0000.0,0003.38,0000.94,0000.65
2024-03-27 20:44:00,SystemResetWarning,0827.0,5.00,000.00,020.3,019.6,000.0,028.7,022.0,10.9,0000.0,0003.44,0000.95,0000.66
2024-03-27 20:45:00,SystemResetWarning,0827.0,5.00,000.00,020.3,019.6,000.0,028.7,022.0,10.6,0000.0,0003.41,0000.94,0000.66
2024-03-27 20:46:00,SystemResetWarning,0827.0,5.00,000.00,020.3,019.6,000.0,028.7,022.0,10.5,0000.0,0003.41,0000.94,0000.66
2024-03-27 20:47:00,SystemResetWarning,0827.1,5.00,000.00,020.3,019.6,000.0,028.7,022.0,09.8,0000.0,0002.72,0000.96,0000.66
2024-03-27 20:48:00,SystemResetWarning,0827.1,5.00,000.00,020.2,019.6,000.0,028.7,022.0,10.4,0000.0,0002.65,0000.92,0000.66
2024-03-27 20:49:00,SystemResetWarning,0827.1,5.00,000.00,020.2,019.6,000.0,028.7,022.0,10.8,0000.0,0002.64,0000.95,0000.66
2024-03-27 20:50:00,SystemResetWarning,0827.2,5.00,000.00,020.2,019.6,000.0,028.7,022.0,12.1,0000.0,0002.69,0000.93,0000.67
2024-03-27 20:51:00,SystemResetWarning,0827.1,5.00,000.00,020.2,019.6,000.0,028.7,022.0,11.0,0000.0,0002.78,0000.94,0000.67
2024-03-27 20:52:00,SystemResetWarning,0827.1,5.00,000.00,020.2,019.6,000.0,028.7,022.0,10.4,0000.0,0002.91,0000.97,0000.67
2024-03-27 20:53:00,SystemResetWarning,0827.1,5.00,000.00,020.2,019.6,000.0,028.7,022.0,10.6,0000.0,0003.02,0001.00,0000.67
2024-03-27 20:54:00,SystemResetWarning,0827.1,5.00,000.00,020.2,019.6,000.0,028.7,022.0,10.8,0000.0,0003.15,0001.02,0000.67
2024-03-27 20:55:00,SystemResetWarning,0827.1,5.00,000.00,020.2,019.6,000.0,028.7,022.0,11.0,0000.0,0003.18,0001.02,0000.67
2024-03-27 20:56:00,SystemResetWarning,0827.1,5.00,000.00,020.2,019.6,000.0,028.7,022.0,10.2,0000.0,0003.22,0001.03,0000.66
2024-03-27 20:57:00,SystemResetWarning,0827.1,5.00,000.00,020.2,019.6,000.0,028.7,022.0,11.2,0000.0,0003.27,0001.05,0000.66
2024-03-27 20:58:00,SystemResetWarning,0827.1,5.00,000.00,020.2,019.6,000.0,028.7,021.9,11.3,0000.0,0003.41,0001.08,0000.65
2024-03-27 20:59:00,SystemResetWarning,0827.1,5.00,000.00,020.2,019.6,000.0,028.7,021.9,10.6,0000.0,0003.51,0001.14,0000.65
